This is the latest recevied weather packets stored in our database for station/object KB7STN. If no packets are shown the sender has not sent any weather packets the latest 10 day(s).
| Time | Temp. | Humidity | Pressure | Rain* | Wind** | Luminosity | Snow |
|---|---|---|---|---|---|---|---|
| 1787916700 | 21.67° C | 51% | 1018.7 hPa | 0 mm | - | - | - |
| 1787916400 | 21.67° C | 51% | 1018.9 hPa | 0 mm | - | - | - |
| 1787916100 | 21.67° C | 50% | 1018.8 hPa | 0 mm | - | - | - |
| 1787915800 | 21.67° C | 49% | 1018.7 hPa | 0 mm | - | - | - |
| 1787915501 | 21.67° C | 52% | 1018.9 hPa | 0 mm | - | - | - |
| 1787915200 | 21.67° C | 51% | 1018.9 hPa | 0 mm | - | - | - |
| 1787914900 | 21.67° C | 51% | 1018.8 hPa | 0 mm | - | - | - |
| 1787914600 | 21.67° C | 49% | 1018.9 hPa | 0 mm | - | - | - |
| 1787914300 | 22.22° C | 48% | 1019 hPa | 0 mm | - | - | - |
| 1787914001 | 22.22° C | 49% | 1019 hPa | 0 mm | - | - | - |
| 1787913700 | 22.22° C | 50% | 1018.7 hPa | 0 mm | - | - | - |
| 1787913401 | 22.78° C | 49% | 1018.7 hPa | 0 mm | - | - | - |
| 1787913100 | 22.78° C | 48% | 1018.6 hPa | 0 mm | - | - | - |
| 1787912801 | 23.33° C | 45% | 1018.5 hPa | 0 mm | - | - | - |
| 1787912501 | 23.33° C | 45% | 1018.5 hPa | 0 mm | - | - | - |
| 1787912200 | 23.33° C | 44% | 1018.5 hPa | 0 mm | - | - | - |
| 1787911901 | 23.89° C | 44% | 1018.6 hPa | 0 mm | - | - | - |
| 1787911600 | 23.89° C | 44% | 1018.4 hPa | 0 mm | - | - | - |
| 1787911300 | 23.89° C | 42% | 1018.5 hPa | 0 mm | - | - | - |
| 1787911000 | 23.89° C | 40% | 1018.4 hPa | 0 mm | - | - | - |
| 1787910701 | 24.44° C | 41% | 1018.4 hPa | 0 mm | - | - | - |
| 1787910401 | 24.44° C | 42% | 1018.4 hPa | 0 mm | - | - | - |
| 1787910101 | 24.44° C | 40% | 1018.6 hPa | 0 mm | - | - | - |
| 1787909801 | 23.89° C | 40% | 1018.6 hPa | 0 mm | - | - | - |
| 1787909501 | 23.89° C | 41% | 1018.5 hPa | 0 mm | - | - | - |
* Rain latest hour (hover to see other rain measurements)
** Current wind speed in m/s (hover to see current wind gust speed)